| time (UTC) | temp C | wind direction | speed KPH | gust KPH | rain 1hr cm | rain 24hr cm | rain mn cm | humidity % | barometer mb |
| 20260505024534 | 17 | 89 | 0.0 | 3.2 | 0.00 | 0.05 | 0.05 | 76 | 1013.2 |
| 20260505023022 | 17 | 89 | 0.0 | 0.0 | 0.00 | 0.05 | 0.05 | 76 | 1013.0 |
| 20260505021523 | 17 | 89 | 0.0 | 0.0 | 0.00 | 0.05 | 0.05 | 75 | 1012.9 |
| 20260505020024 | 17 | 89 | 0.0 | 3.2 | 0.00 | 0.05 | 0.05 | 73 | 1012.9 |
| 20260505014514 | 17 | 89 | 0.0 | 0.0 | 0.00 | 0.05 | 0.05 | 73 | 1012.9 |
| 20260505013023 | 18 | 89 | 0.0 | 0.0 | 0.00 | 0.05 | 0.05 | 71 | 1012.7 |
| 20260505011522 | 18 | 89 | 0.0 | 0.0 | 0.00 | 0.05 | 0.05 | 69 | 1012.7 |
| 20260505010022 | 19 | 89 | 0.0 | 0.0 | 0.00 | 0.05 | 0.05 | 67 | 1012.4 |
| 20260505004526 | 20 | 89 | 0.0 | 0.0 | 0.00 | 0.05 | 0.05 | 65 | 1012.4 |
| 20260505003018 | 21 | 89 | 0.0 | 0.0 | 0.00 | 0.05 | 0.05 | 59 | 1012.3 |
| 20260505001520 | 22 | 89 | 0.0 | 0.0 | 0.00 | 0.05 | 0.05 | 1012.4 | |
| 20260505000032 | 23 | 89 | 0.0 | 1.6 | 0.00 | 0.05 | 0.05 | 49 | 1012.2 |
| 20260504234524 | 23 | 49 | 0.0 | 1.6 | 0.00 | 0.05 | 0.05 | 49 | 1012.4 |
| 20260504233021 | 23 | 46 | 0.0 | 3.2 | 0.00 | 0.05 | 0.05 | 48 | 1012.4 |
| 20260504231526 | 24 | 165 | 0.0 | 3.2 | 0.00 | 0.05 | 0.05 | 45 | 1012.5 |
| 20260504230007 | 24 | 19 | 0.0 | 4.8 | 0.00 | 0.05 | 0.05 | 45 | 1012.5 |
| 20260504224508 | 25 | 183 | 1.6 | 6.4 | 0.00 | 0.05 | 0.05 | 43 | 1012.5 |
| 20260504223012 | 25 | 78 | 0.0 | 6.4 | 0.00 | 0.05 | 0.05 | 44 | 1012.8 |
| 20260504221521 | 25 | 75 | 0.0 | 3.2 | 0.00 | 0.05 | 0.05 | 44 | 1012.9 |
| 20260504220012 | 25 | 77 | 0.0 | 6.4 | 0.00 | 0.05 | 0.05 | 43 | 1013.0 |
| 20260504214509 | 25 | 119 | 0.0 | 12.9 | 0.00 | 0.05 | 0.05 | 43 | 1013.2 |
| 20260504213012 | 25 | 281 | 1.6 | 3.2 | 0.00 | 0.05 | 0.05 | 40 | 1013.4 |
| 20260504211515 | 25 | 180 | 0.0 | 3.2 | 0.00 | 0.08 | 0.05 | 43 | 1013.5 |
| 20260504210020 | 25 | 327 | 0.0 | 3.2 | 0.00 | 0.08 | 0.05 | 42 | 1013.6 |
| 20260504204503 | 25 | 318 | 0.0 | 3.2 | 0.00 | 0.08 | 0.05 | 43 | 1013.9 |
| 20260504203019 | 25 | 193 | 3.2 | 17.7 | 0.00 | 0.08 | 0.05 | 44 | 1014.0 |
| 20260504201512 | 25 | 306 | 0.0 | 12.9 | 0.00 | 0.08 | 0.05 | 46 | 1014.2 |
| 20260504200024 | 25 | 210 | 1.6 | 9.7 | 0.00 | 0.08 | 0.05 | 42 | 1014.6 |
| 20260504194504 | 25 | 210 | 0.0 | 3.2 | 0.00 | 0.08 | 0.05 | 43 | 1014.7 |
| 20260504193015 | 25 | 249 | 1.6 | 11.3 | 0.00 | 0.08 | 0.05 | 44 | 1014.9 |
| 20260504191512 | 25 | 313 | 0.0 | 9.7 | 0.00 | 0.08 | 0.05 | 45 | 1014.9 |
| 20260504190016 | 25 | 170 | 3.2 | 12.9 | 0.00 | 0.08 | 0.05 | 39 | 1015.1 |
| 20260504184533 | 25 | 133 | 3.2 | 6.4 | 0.03 | 0.08 | 0.05 | 43 | 1015.0 |
| 20260504183007 | 25 | 152 | 1.6 | 8.0 | 0.03 | 0.08 | 0.05 | 44 | 1015.2 |
| 20260504181513 | 24 | 173 | 0.0 | 6.4 | 0.03 | 0.08 | 0.05 | 45 | 1015.3 |
| 20260504180020 | 25 | 325 | 0.0 | 14.5 | 0.03 | 0.08 | 0.05 | 48 | 1015.6 |
| 20260504174520 | 25 | 291 | 0.0 | 3.2 | 0.00 | 0.05 | 0.03 | 46 | 1015.7 |
| 20260504171508 | 23 | 308 | 0.0 | 4.8 | 0.00 | 0.05 | 0.03 | 52 | 1016.2 |
| 20260504081510 | 11 | 346 | 0.0 | 3.2 | 0.00 | 0.05 | 0.00 | 90 | 1016.8 |
| 20260504050008 | 11 | 346 | 0.0 | 3.2 | 0.00 | 0.05 | 0.00 | 89 | 1018.4 |
| 20260504044511 | 11 | 346 | 0.0 | 0.0 | 0.00 | 0.05 | 0.05 | 90 | 1018.4 |
| 20260504043011 | 11 | 346 | 0.0 | 3.2 | 0.00 | 0.05 | 0.05 | 89 | 1018.6 |
| 20260504041504 | 11 | 346 | 0.0 | 0.0 | 0.00 | 0.05 | 0.05 | 89 | 1018.7 |
| 20260504040010 | 11 | 346 | 0.0 | 0.0 | 0.00 | 0.05 | 0.05 | 89 | 1018.7 |
| 20260504034521 | 11 | 346 | 0.0 | 0.0 | 0.00 | 0.05 | 0.05 | 88 | 1018.7 |
| 20260504033015 | 11 | 346 | 0.0 | 0.0 | 0.00 | 0.05 | 0.05 | 87 | 1018.8 |
| 20260504031504 | 12 | 346 | 0.0 | 0.0 | 0.00 | 0.05 | 0.05 | 86 | 1019.0 |
| 20260504030006 | 12 | 346 | 0.0 | 0.0 | 0.00 | 0.05 | 0.05 | 86 | 1018.7 |